El Paso, TX

5:56 PM MDT on May 26, 2017 (GMT -0600)
El Paso International

Weather History for KELP - February, 2012

Change the Weather History Date:

Thursday, February 9, 2012

  Actual Average Record
Temperature  
Mean Temperature 49 °F 49 °F  
Max Temperature 65 °F 62 °F 78 °F (1957)
Min Temperature 32 °F 36 °F 11 °F (1974)
Degree Days  
Heating Degree Days 16 16  
Month to date heating degree days 154 153  
Since 1 July heating degree days 1762 1838  
Cooling Degree Days 0 0  
Month to date cooling degree days 0 0  
Year to date cooling degree days 0 0  
Moisture  
Dew Point 28 °F    
Average Humidity 48    
Maximum Humidity 70    
Minimum Humidity 26    
Precipitation  
Precipitation 0.00 in 0.02 in 0.29 in (1894)
Month to date precipitation 0.00 0.16  
Year to date precipitation 0.66 0.56  
Snow  
Snow 0.00 in - - ()
Month to date snowfall 0.0  
Since 1 July snowfall 3.2  
Snow Depth 0.00 in    
Sea Level Pressure  
Sea Level Pressure 30.03 in    
Wind  
Wind Speed 7 mph (NNW)    
Max Wind Speed 17 mph    
Max Gust Speed 22 mph    
Visibility 10 miles    
Events      
T = Trace of Precipitation, MM = Missing Value Source: NWS Daily Summary

Daily Weather History Graph

Daily Weather History Graph

Search for Another Location

Airport or City:

Trip Planner

Search our weather history database for the weather conditions in past years. The results will help you decide how hot, cold, wet, or windy it might be!

Date:

Astronomy

Feb. 09, 2012 Rise Set
Actual Time 6:53 AM MST 5:46 PM MST
Civil Twilight 6:28 AM MST 6:11 PM MST
Nautical Twilight 5:59 AM MST 6:40 PM MST
Astronomical Twilight 5:30 AM MST 7:09 PM MST
Moon 8:04 PM MST (2/9) 7:42 AM MST (2/9)
Length of Visible Light 11h 43m
Length of Day
10h 53m
Waning Gibbous, 95% of the Moon is Illuminated
Feb 9
Waning Gibbous
Feb 14
Last Quarter
Feb 21
New
Feb 29
First Quarter
Mar 8
Full

Hourly Weather History & Observations

Time (MST) Temp. Windchill Dew Point Humidity Pressure Visibility Wind Dir Wind Speed Gust Speed Precip Events Conditions
12:51 AM 41.0 °F 37.1 °F 27.0 °F 57% 30.11 in 10.0 mi NNE 5.8 mph - N/A   Partly Cloudy
1:51 AM 39.0 °F 34.0 °F 27.0 °F 62% 30.10 in 10.0 mi NNE 6.9 mph - N/A   Scattered Clouds
2:51 AM 39.0 °F 34.0 °F 27.0 °F 62% 30.09 in 10.0 mi NNE 6.9 mph - N/A   Scattered Clouds
3:51 AM 37.9 °F 32.1 °F 27.0 °F 65% 30.07 in 10.0 mi NNE 8.1 mph - N/A   Partly Cloudy
4:51 AM 37.9 °F 32.1 °F 28.0 °F 68% 30.08 in 10.0 mi North 8.1 mph - N/A   Partly Cloudy
5:51 AM 39.0 °F 33.4 °F 27.0 °F 62% 30.09 in 10.0 mi NNE 8.1 mph - N/A   Partly Cloudy
6:51 AM 33.1 °F 30.0 °F 25.0 °F 72% 30.11 in 10.0 mi NE 3.5 mph - N/A   Partly Cloudy
7:51 AM 41.0 °F 39.0 °F 28.0 °F 60% 30.12 in 10.0 mi North 3.5 mph - N/A   Mostly Cloudy
8:51 AM 45.0 °F 43.5 °F 28.9 °F 53% 30.12 in 10.0 mi NNE 3.5 mph - N/A   Mostly Cloudy
9:51 AM 46.9 °F - 28.0 °F 48% 30.12 in 10.0 mi North 8.1 mph - N/A   Mostly Cloudy
10:51 AM 50.0 °F - 28.0 °F 43% 30.07 in 10.0 mi Calm Calm - N/A   Mostly Cloudy
11:51 AM 54.0 °F - 28.0 °F 37% 30.06 in 10.0 mi West 3.5 mph - N/A   Scattered Clouds
12:51 PM 59.0 °F - 28.0 °F 31% 30.00 in 10.0 mi SW 9.2 mph - N/A   Partly Cloudy
1:51 PM 62.6 °F - 28.4 °F 27% 30.05 in 10.0 mi SW 10.4 mph 18.4 mph N/A   Partly Cloudy
2:51 PM 64.0 °F - 28.9 °F 27% 29.93 in 10.0 mi West 11.5 mph - N/A   Partly Cloudy
3:51 PM 64.0 °F - 28.9 °F 27% 29.91 in 10.0 mi WSW 11.5 mph - N/A   Scattered Clouds
4:51 PM 63.0 °F - 28.9 °F 28% 29.92 in 10.0 mi West 11.5 mph - N/A   Scattered Clouds
5:51 PM 61.0 °F - 28.9 °F 30% 29.92 in 10.0 mi WSW 8.1 mph - N/A   Partly Cloudy
6:51 PM 57.0 °F - 28.9 °F 34% 29.95 in 10.0 mi SSW 5.8 mph - N/A   Clear
7:51 PM 55.0 °F - 28.9 °F 37% 29.94 in 10.0 mi South 4.6 mph - N/A   Clear
8:51 PM 55.0 °F - 28.9 °F 37% 29.95 in 10.0 mi SSE 4.6 mph - N/A   Partly Cloudy
9:51 PM 59.0 °F - 24.1 °F 26% 29.95 in 10.0 mi WNW 8.1 mph - N/A   Partly Cloudy
10:21 PM 53.6 °F - 24.8 °F 33% 30.06 in 10.0 mi NNE 13.8 mph - N/A   Partly Cloudy
10:51 PM 48.9 °F - 27.0 °F 43% 29.99 in 10.0 mi North 13.8 mph - N/A   Clear
11:51 PM 48.9 °F - 28.9 °F 46% 30.01 in 10.0 mi North 12.7 mph - N/A   Clear